Wind_Speed
7 8 8 8 9 8 8 7 6 6 6 5 5 4 4 4 4 4 4 4 4 4 4 3 3 3 2 2 1 1 1 1 1 1 1 2 2 2 3 3 4 5 5
8 8 9 9 9 9 8 8 7 7 7 6 5 5 4 4 4 4 4 3 3 3 3 3 2 2 2 1 1 0 0 0 0 1 1 1 1 2 2 3 4 5 5
9 9 9 9 10 10 9 9 8 8 7 7 6 5 5 4 3 3 3 2 2 2 2 2 1 2 1 0 0 1 1 0 0 0 1 2 1 2 3 3 4 4 5
9 9 10 10 10 10 10 10 9 8 8 8 7 6 5 4 3 2 2 1 1 1 1 1 1 1 0 0 1 1 1 1 1 1 1 2 2 3 3 3 3 3 4
9 9 10 10 11 11 11 10 10 9 9 8 7 6 5 4 3 2 2 1 1 0 0 0 0 1 1 1 2 1 2 2 2 2 1 2 2 2 2 3 2 3 3
9 10 11 11 12 12 11 11 11 10 10 9 8 7 6 5 4 3 2 2 1 1 1 1 1 2 2 2 3 2 2 2 2 2 2 3 2 2 2 2 3 2 3
9 10 11 12 12 13 12 12 12 11 11 10 9 8 7 5 4 3 3 2 2 2 2 2 2 2 2 3 3 3 3 3 2 3 3 3 3 2 2 2 2 2 3
9 11 11 12 13 13 13 13 12 12 11 10 9 8 7 6 5 4 3 2 2 3 3 3 3 3 3 3 3 3 4 3 3 3 3 3 3 3 3 3 2 3 3
10 11 12 12 14 15 14 13 13 13 12 11 10 9 8 7 6 5 4 3 3 3 3 3 3 3 3 3 3 4 4 4 4 4 4 4 4 4 4 4 4 4 4
10 10 12 13 14 14 15 15 14 13 13 12 11 10 9 8 6 6 5 4 4 3 3 3 3 3 3 3 3 3 4 4 4 4 5 5 5 5 5 5 5 5 5
12 11 11 13 13 14 15 16 16 15 14 12 11 10 9 8 7 6 5 5 4 4 3 3 3 3 3 3 3 3 3 3 3 3 4 5 5 5 6 6 6 6 7
14 13 12 12 13 14 16 16 17 16 15 14 12 11 9 8 7 6 6 5 4 3 3 3 2 2 2 2 2 3 2 2 3 3 4 5 5 6 5 6 6 7 7
16 15 13 13 14 15 16 17 17 17 16 15 13 11 10 9 8 7 6 5 4 3 3 2 2 2 2 2 2 2 2 2 3 4 4 5 5 5 5 6 7 8 8
18 17 15 15 15 15 17 19 19 18 17 16 14 12 11 10 9 8 6 5 4 3 3 2 1 1 1 1 2 2 2 2 3 3 4 4 4 4 5 5 6 7 8
19 18 17 17 15 15 16 17 18 18 16 16 14 13 11 10 9 8 6 5 4 3 2 1 0 0 1 1 2 2 2 3 3 3 3 3 3 4 4 5 6 7 7
19 17 17 15 13 13 15 18 18 18 16 15 14 13 11 10 9 7 6 5 4 3 2 1 0 1 1 1 2 2 3 3 3 3 3 2 3 3 3 4 4 5 6
17 16 16 13 13 12 14 17 17 17 15 15 14 13 11 10 8 7 5 4 4 3 2 1 0 1 1 2 2 3 3 4 3 3 2 3 3 2 2 3 3 4 5
15 15 15 13 12 12 12 15 16 16 16 15 14 13 11 10 8 7 6 5 4 3 2 1 0 1 1 2 2 3 3 4 4 4 3 3 3 3 2 2 3 3 3
14 14 14 13 12 11 11 15 17 17 17 16 14 13 12 10 9 8 7 6 4 3 2 1 1 0 1 2 2 3 3 4 4 4 4 4 4 4 3 3 2 2 3
12 11 11 10 11 11 11 13 15 16 16 16 15 13 12 11 10 9 8 7 5 4 3 2 2 1 0 1 2 3 3 3 4 4 4 5 5 5 5 3 2 2 3
9 9 8 9 10 11 11 13 14 16 16 16 15 14 13 12 11 9 8 7 6 5 4 3 2 1 1 1 2 3 3 3 4 4 4 5 5 6 5 5 3 3 3
9 8 7 8 9 10 11 13 15 16 16 16 15 14 13 12 11 10 9 8 7 6 5 4 3 2 1 1 1 2 3 3 4 4 5 4 5 6 6 6 4 3 3
9 8 8 8 9 10 11 13 15 16 16 15 14 14 14 13 12 10 10 9 8 7 6 5 3 3 2 1 1 2 2 3 3 4 5 5 5 6 6 6 5 5 5
8 7 7 7 9 10 11 13 14 15 15 14 14 16 15 14 13 12 11 10 9 8 7 6 4 3 2 1 0 1 1 2 3 4 5 5 5 6 6 6 6 6 5
7 6 6 6 7 9 10 12 14 15 15 15 15 16 15 15 14 13 12 10 10 9 8 7 6 5 3 2 1 1 2 2 3 3 4 5 5 6 6 6 6 7 7
6 5 5 6 7 8 10 12 14 15 16 16 16 16 15 15 14 13 13 12 11 10 10 9 8 7 5 4 3 3 3 3 4 4 4 5 5 6 7 7 7 7 7
Wind_Direction
244 228 221 214 209 203 201 203 207 209 207 200 188 174 162 147 133 125 119 108 99 90 87 87 85 86 84 81 81 86 90 95 104 114 112 100 94 91 100 100 99 97 91
258 240 229 222 216 213 212 212 216 220 218 212 204 195 181 160 141 130 126 115 101 91 85 84 81 82 82 78 83 99 112 54 223 181 161 140 120 118 122 120 107 102 102
263 250 238 230 226 221 218 217 219 227 228 223 216 208 194 176 157 142 135 123 112 98 85 79 74 74 79 86 204 220 217 305 206 193 189 183 170 146 135 127 115 114 111
269 256 245 238 233 227 223 222 224 231 234 230 223 215 202 192 179 166 156 145 129 111 88 65 53 58 87 226 243 242 235 245 225 215 191 191 184 171 154 137 129 129 120
273 260 248 242 237 230 226 225 228 232 234 233 229 224 215 205 200 191 182 178 174 172 355 324 281 277 255 252 253 254 248 246 233 222 198 197 190 180 175 162 151 142 136
274 261 249 244 240 235 230 228 230 233 235 234 234 232 226 215 211 204 204 203 220 256 289 287 276 262 255 253 255 254 250 250 250 231 229 222 206 191 176 169 163 147 149
275 263 254 247 243 239 234 231 232 233 235 238 238 236 230 225 223 220 223 228 249 264 280 288 276 261 256 257 257 254 251 253 245 236 247 221 209 202 194 187 192 184 170
281 268 258 252 246 243 236 233 233 234 236 236 238 237 234 231 231 233 240 253 269 273 276 279 276 266 261 262 265 264 256 253 251 254 249 233 226 224 221 216 219 220 199
290 273 257 254 249 245 238 233 231 232 234 234 235 236 236 234 234 239 246 258 269 277 280 280 276 267 261 264 267 270 266 262 255 261 260 251 248 244 241 238 232 227 219
299 282 263 256 251 243 236 231 230 231 233 233 235 236 238 238 241 244 251 259 267 276 280 279 273 264 263 271 275 277 277 277 264 254 262 258 253 250 247 245 235 230 222
304 290 271 260 253 244 236 231 230 230 230 232 234 236 238 240 244 246 251 256 263 269 272 277 272 272 274 278 282 285 285 281 265 269 269 265 258 255 253 249 240 232 226
302 292 279 265 257 249 237 232 230 230 229 229 231 234 238 238 241 246 251 250 258 263 267 278 283 288 288 282 287 295 291 271 269 286 279 270 264 258 254 251 243 231 229
298 289 282 272 260 247 236 231 230 230 229 227 228 233 239 240 242 245 244 242 252 259 267 279 287 298 302 301 314 312 304 280 277 277 278 272 267 260 252 249 245 237 232
298 291 288 274 260 245 232 227 227 224 227 227 226 231 240 243 241 239 239 236 245 256 262 276 296 308 309 321 333 325 318 290 281 282 286 282 273 264 259 255 248 241 238
295 286 281 278 269 247 229 223 226 224 224 224 224 232 238 243 241 237 231 233 236 239 239 242 275 351 335 338 344 340 344 333 326 305 297 288 285 275 269 267 253 242 244
295 280 276 274 262 245 228 221 224 224 223 223 224 231 233 234 234 230 227 230 226 222 214 182 117 64 36 19 12 6 5 358 350 332 329 321 294 287 279 273 260 246 249
296 281 273 271 257 238 228 225 222 219 219 220 223 228 228 227 230 223 222 223 214 210 196 179 85 67 46 26 22 18 15 12 13 19 4 351 339 323 299 278 261 250 251
294 281 273 267 256 239 231 222 217 216 215 214 222 227 224 224 223 220 219 209 199 206 199 195 8 81 64 42 33 22 19 23 27 34 26 9 359 351 336 305 279 264 268
289 283 277 265 253 239 231 222 216 215 213 212 220 222 220 219 219 217 214 209 210 213 204 213 237 111 60 42 35 25 24 33 33 31 30 24 17 9 357 335 307 290 289
292 285 279 263 245 236 229 224 216 212 213 213 217 216 216 215 215 211 209 211 215 220 217 215 211 169 79 47 38 32 32 35 33 28 28 27 21 17 11 360 346 327 313
299 289 271 253 242 235 229 223 217 215 214 213 215 215 212 210 209 207 209 213 218 217 216 207 202 194 166 62 54 47 37 32 31 31 28 25 21 21 19 10 1 359 348
300 289 268 255 245 232 226 219 216 215 210 211 213 214 209 208 208 209 209 211 215 216 215 209 205 200 179 112 62 51 45 39 36 32 24 21 22 24 20 19 18 12 360
300 285 273 258 246 235 227 216 215 215 212 213 216 212 209 209 208 207 208 211 216 217 214 210 202 191 177 146 74 63 56 46 42 30 31 29 26 21 17 16 16 13 5
304 286 269 253 244 238 230 223 220 218 218 216 218 213 212 213 211 209 208 212 215 214 212 209 204 198 192 196 231 31 24 22 24 19 18 14 14 13 13 10 3 358 354
308 293 271 251 240 237 231 224 218 217 219 220 218 212 213 213 212 212 213 216 216 214 214 213 211 210 211 225 254 292 318 336 347 350 354 355 359 1 2 360 357 354 350
318 299 277 255 244 235 223 218 215 218 220 219 215 210 211 212 213 216 216 216 216 216 217 218 217 218 224 237 252 274 294 308 319 323 326 331 337 340 342 341 341 343 342
Height
5879 5879 5880 5882 5883 5884 5885 5885 5886 5886 5886 5887 5887 5887 5887 5887 5886 5886 5886 5886 5886 5886 5886 5886 5886 5886 5886 5885 5885 5885 5885 5885 5885 5886 5886 5886 5886 5886 5887 5887 5887 5888 5888
5878 5879 5880 5881 5882 5883 5884 5885 5886 5886 5887 5887 5887 5887 5887 5887 5887 5887 5887 5887 5887 5887 5886 5886 5886 5886 5886 5886 5886 5886 5886 5886 5886 5886 5886 5886 5886 5887 5887 5887 5888 5889 5889
5877 5878 5879 5880 5882 5883 5884 5885 5886 5886 5887 5887 5887 5887 5887 5887 5887 5887 5887 5887 5887 5887 5887 5887 5887 5887 5886 5886 5886 5886 5886 5886 5886 5886 5886 5887 5887 5887 5888 5888 5889 5889 5890
5877 5877 5878 5879 5881 5882 5883 5884 5885 5886 5887 5887 5887 5887 5888 5888 5888 5888 5888 5888 5888 5887 5887 5887 5887 5887 5887 5887 5886 5886 5887 5886 5886 5886 5886 5887 5887 5888 5888 5889 5889 5890 5891
5876 5877 5877 5878 5880 5881 5882 5884 5885 5886 5886 5887 5887 5887 5887 5887 5888 5888 5888 5888 5888 5888 5887 5887 5887 5887 5887 5887 5887 5887 5887 5887 5886 5886 5887 5887 5888 5888 5889 5889 5890 5891 5891
5876 5876 5876 5877 5878 5880 5881 5883 5884 5885 5886 5886 5887 5887 5887 5887 5887 5888 5888 5887 5888 5888 5887 5887 5887 5887 5887 5887 5887 5887 5887 5887 5887 5886 5887 5888 5888 5889 5889 5890 5890 5891 5892
5875 5875 5875 5876 5877 5878 5880 5881 5883 5884 5885 5886 5886 5886 5887 5887 5887 5887 5887 5887 5887 5887 5887 5887 5887 5887 5887 5886 5886 5887 5887 5887 5887 5887 5887 5888 5888 5889 5889 5890 5891 5892 5892
5874 5873 5874 5875 5876 5877 5878 5880 5881 5883 5884 5885 5886 5886 5886 5887 5887 5887 5887 5887 5887 5887 5887 5887 5887 5886 5886 5886 5886 5886 5886 5887 5887 5887 5887 5888 5888 5889 5890 5890 5891 5892 5893
5872 5871 5872 5873 5874 5875 5877 5878 5880 5881 5883 5884 5885 5885 5886 5886 5886 5887 5887 5887 5887 5887 5887 5887 5886 5886 5886 5886 5886 5886 5886 5887 5887 5887 5887 5888 5888 5889 5890 5890 5891 5892 5893
5870 5870 5870 5871 5872 5873 5874 5876 5878 5880 5881 5883 5883 5884 5885 5886 5886 5886 5886 5886 5886 5886 5886 5886 5886 5886 5885 5885 5885 5885 5886 5886 5886 5886 5887 5888 5888 5889 5889 5890 5891 5891 5892
5867 5867 5868 5868 5869 5871 5872 5874 5876 5878 5879 5881 5882 5883 5884 5885 5885 5885 5885 5885 5886 5886 5886 5886 5885 5885 5885 5885 5885 5885 5885 5885 5884 5885 5886 5887 5888 5888 5889 5889 5890 5891 5892
5865 5864 5865 5866 5867 5868 5870 5872 5874 5876 5878 5879 5881 5882 5883 5884 5884 5884 5885 5885 5885 5885 5885 5885 5885 5885 5885 5885 5884 5885 5885 5885 5884 5884 5886 5887 5887 5888 5888 5889 5889 5890 5891
5862 5861 5862 5862 5862 5864 5866 5869 5871 5874 5876 5878 5880 5881 5882 5883 5883 5884 5884 5885 5885 5885 5885 5885 5885 5885 5885 5884 5883 5884 5885 5885 5885 5885 5885 5886 5886 5887 5887 5888 5889 5890 5891
5859 5858 5857 5856 5858 5859 5862 5865 5868 5871 5873 5876 5878 5879 5880 5881 5882 5883 5884 5884 5884 5885 5885 5885 5885 5885 5884 5883 5884 5884 5885 5885 5885 5885 5884 5885 5886 5886 5887 5887 5888 5889 5890
5855 5854 5854 5854 5855 5856 5859 5861 5864 5868 5871 5874 5876 5878 5879 5880 5881 5882 5883 5884 5884 5884 5884 5884 5884 5885 5884 5884 5884 5884 5884 5884 5884 5884 5884 5885 5885 5886 5886 5887 5887 5888 5889
5851 5851 5851 5851 5852 5853 5855 5858 5861 5865 5869 5872 5874 5876 5877 5879 5880 5881 5882 5883 5884 5884 5884 5884 5884 5884 5884 5884 5884 5884 5884 5884 5884 5884 5884 5884 5885 5885 5885 5886 5886 5887 5888
5849 5848 5847 5848 5849 5851 5853 5855 5859 5863 5867 5870 5872 5875 5876 5878 5879 5880 5882 5883 5883 5884 5884 5884 5884 5884 5884 5884 5884 5884 5884 5884 5884 5884 5884 5884 5884 5885 5885 5885 5886 5886 5887
5846 5846 5845 5845 5847 5849 5851 5854 5857 5861 5865 5868 5871 5873 5875 5877 5878 5880 5881 5882 5883 5883 5884 5884 5884 5884 5884 5884 5884 5885 5884 5884 5884 5884 5884 5884 5884 5884 5884 5885 5885 5886 5886
5844 5844 5843 5844 5846 5848 5849 5852 5855 5859 5863 5866 5869 5872 5874 5876 5878 5879 5880 5881 5882 5883 5883 5884 5884 5884 5884 5884 5885 5885 5885 5885 5885 5884 5884 5884 5884 5884 5884 5884 5885 5885 5886
5842 5842 5841 5842 5844 5846 5848 5850 5854 5857 5861 5865 5868 5870 5873 5875 5876 5878 5880 5881 5882 5882 5882 5883 5883 5884 5884 5884 5885 5885 5885 5885 5885 5885 5885 5885 5884 5884 5884 5884 5884 5885 5885
5840 5840 5839 5841 5842 5844 5847 5849 5852 5856 5859 5863 5865 5868 5871 5873 5875 5877 5879 5880 5881 5882 5882 5882 5883 5883 5884 5884 5885 5885 5885 5885 5885 5885 5885 5885 5885 5884 5884 5884 5884 5884 5885
5840 5839 5839 5840 5841 5843 5846 5848 5851 5853 5856 5860 5863 5867 5870 5872 5874 5876 5878 5879 5880 5881 5882 5882 5883 5883 5884 5884 5885 5885 5885 5886 5885 5885 5885 5885 5885 5885 5884 5884 5884 5884 5884
5839 5838 5838 5839 5840 5842 5844 5846 5849 5852 5855 5858 5862 5865 5868 5870 5873 5875 5877 5878 5879 5880 5881 5882 5883 5883 5883 5884 5884 5885 5885 5886 5885 5886 5885 5885 5885 5885 5885 5885 5884 5885 5885
5837 5837 5837 5838 5839 5840 5842 5845 5848 5851 5854 5857 5860 5863 5866 5869 5871 5873 5875 5877 5878 5879 5881 5882 5882 5883 5883 5884 5884 5885 5885 5885 5885 5886 5886 5885 5885 5885 5885 5885 5885 5885 5884
5835 5835 5835 5836 5838 5839 5840 5843 5846 5849 5852 5855 5858 5861 5864 5867 5869 5871 5873 5875 5877 5878 5879 5881 5881 5882 5883 5884 5884 5884 5884 5885 5885 5885 5885 5885 5885 5885 5885 5885 5884 5884 5884
5834 5834 5834 5835 5836 5837 5839 5842 5844 5847 5850 5853 5856 5859 5862 5865 5867 5869 5872 5873 5875 5877 5878 5879 5880 5881 5882 5883 5883 5884 5884 5884 5884 5884 5884 5884 5884 5884 5884 5884 5884 5883 5883